This demonstration page uses our WeatherBlox Daily Observations layout. Learn more.

Left ArrowRight Arrow

Hourly Observations for March 21, 2020

Temp ( °F °C ) Dew Point ( °F °C ) Humidity (%) Winds ( mph kmh ) Pressure ( in mb ) Visibility ( mi km ) Precip ( " mm )
12:56 am 00:56 Cloudy 24 -4.3 14 -10.1 64 64 NNE 5 7 30.64 1038 10 16 0.00 0.00
1:56 am 01:56 Cloudy 24 -4.3 14 -9.9 65 65 NNE 5 7 30.63 1037 10 16 0.00 0.00
2:56 am 02:56 Cloudy 23 -4.8 14 -9.8 68 68 Calm 30.62 1037 10 16 0.00 0.00
3:56 am 03:56 Cloudy 25 -4.1 16 -9.1 69 69 Calm 30.60 1036 10 16 0.00 0.00
4:56 am 04:56 Cloudy 25 -4.1 15 -9.3 67 67 Calm 30.58 1036 10 16 0.00 0.00
5:56 am 05:56 Mostly Cloudy 23 -4.9 16 -9 73 73 ENE 3 6 30.57 1035 10 16 0.00 0.00
6:56 am 06:56 Mostly Cloudy 23 -5.2 16 -8.8 76 76 Calm 30.59 1036 10 16 0.00 0.00
7:56 am 07:56 Partly Cloudy 22 -5.3 17 -8.5 78 78 SE 5 7 30.58 1036 10 16 0.00 0.00
8:56 am 08:56 Cloudy 26 -3.2 17 -8.3 68 68 Calm 30.59 1036 10 16 0.00 0.00
9:56 am 09:56 Mostly Cloudy 29 -1.6 19 -7.3 65 65 S 7 11 30.59 1036 10 16 0.00 0.00
10:56 am 10:56 Cloudy 31 -0.5 19 -7.1 61 61 SE 9 15 30.56 1035 10 16 0.00 0.00
11:56 am 11:56 Sunny 35 1.6 20 -6.5 55 55 ESE 8 13 30.56 1035 10 16 0.00 0.00
12:56 pm 12:56 Sunny 38 3.2 21 -6.2 51 51 S 13 20 30.52 1034 10 16 0.00 0.00
1:56 pm 13:56 Partly Cloudy 40 4.7 22 -5.7 47 47 SSE 13 20 30.49 1033 10 16 0.00 0.00
2:56 pm 14:56 Mostly Sunny 43 6 23 -5 46 46 S 10 17 30.44 1031 10 16 0.00 0.00
3:56 pm 15:56 Sunny 45 7 23 -5 42 42 ESE 12 19 30.40 1030 10 16 0.00 0.00
4:56 pm 16:56 Sunny 45 7.4 25 -3.8 45 45 SSE 13 20 30.37 1029 10 16 0.00 0.00
5:56 pm 17:56 Partly Cloudy 46 7.5 25 -4 44 44 SE 14 22 30.32 1027 10 16 0.00 0.00
6:56 pm 18:56 Cloudy 44 6.7 25 -3.8 47 47 SSE 15 24 30.32 1027 10 16 0.00 0.00
7:56 pm 19:56 Cloudy 42 5.7 27 -2.9 54 54 ESE 9 15 30.32 1027 10 16 0.00 0.00
8:56 pm 20:56 Cloudy 42 5.3 28 -2.3 58 58 SE 7 11 30.30 1026 10 16 0.00 0.00
9:56 pm 21:56 Cloudy 41 5 27 -2.6 58 58 SE 8 13 30.31 1027 10 16 0.00 0.00
10:56 pm 22:56 Mostly Cloudy 40 4.4 27 -2.7 60 60 SE 12 19 30.31 1027 10 16 0.00 0.00
11:56 pm 23:56 Mostly Cloudy 38 3.3 27 -2.7 65 65 SE 8 13 30.32 1027 10 16 0.00 0.00

Powered by AerisWeather